This demonstration page uses our WeatherBlox Daily Observations layout. Learn more.

Left ArrowRight Arrow

39.95238, -75.16362

Hourly Observations for May 6, 2016

Temp ( °F °C ) Dew Point ( °F °C ) Humidity (%) Winds ( mph kmh ) Pressure ( in mb ) Visibility ( mi km ) Precip ( " mm )
12:22 am 00:22 Cloudy 56 13.3 44 6.7 65 65 NE 12 19 29.68 1005 10 16 0.00 0.00
12:54 am 00:54 Cloudy 56 13.3 45 7.2 67 67 NE 9 15 29.67 1005 10 16 0.00 0.00
1:54 am 01:54 Cloudy 55 12.8 45 7.2 69 69 ENE 7 11 29.67 1005 10 16 0.00 0.00
2:20 am 02:20 Cloudy 54 12 46 8 77 77 E 9 15 29.68 1005 10 16 0.00 0.00
2:54 am 02:54 Cloudy 52 11.1 47 8.3 83 83 ENE 10 17 29.66 1004 10 16 0.00 0.03
3:12 am 03:12 Cloudy with Light Rain 52 11.1 47 8.3 83 83 ENE 6 9 29.65 1004 7 11 0.00 0.03
3:54 am 03:54 Cloudy with Light Rain 52 11.1 47 8.3 83 83 ENE 6 9 29.65 1004 9 14 0.01 0.25
4:38 am 04:38 Cloudy with Rain 52 11.1 47 8.3 83 83 NE 8 13 29.65 1004 5 8 0.04 1.02
4:54 am 04:54 Cloudy with Rain 51 10.6 47 8.3 86 86 NE 8 13 29.65 1004 5 8 0.09 2.29
5:17 am 05:17 Cloudy with Light Rain 51 10.6 47 8.3 86 86 ENE 8 13 29.65 1004 5 8 0.04 1.02
5:28 am 05:28 Cloudy with Rain 52 11 46 8 82 82 NE 10 17 29.65 1004 6 10 0.00 0.00
5:54 am 05:54 Cloudy with Rain 51 10.6 46 7.8 83 83 NNE 16 26 29.65 1004 6 10 0.09 2.29
6:24 am 06:24 Cloudy with Light Rain 52 11 46 8 82 82 NE 10 17 29.65 1004 6 10 0.00 0.00
6:54 am 06:54 Cloudy with Light Rain 51 10.6 46 7.8 83 83 NE 15 24 29.66 1004 5 8 0.08 2.03
7:05 am 07:05 Cloudy with Light Rain 51 10.6 46 7.8 83 83 NE 14 22 29.65 1004 6 10 0.01 0.25
7:44 am 07:44 Cloudy with Rain 51 10.6 46 7.8 83 83 NNE 20 31 29.65 1004 4 6 0.03 0.76
7:54 am 07:54 Cloudy with Rain 51 10.6 46 7.8 83 83 NE 16 26 29.65 1004 3 5 0.05 1.27
8:07 am 08:07 Cloudy with Light Rain 51 10.6 45 7.2 80 80 NE 13 20 29.68 1005 5 8 0.01 0.25
8:18 am 08:18 Cloudy with Rain 52 11 46 8 82 82 ENE 9 15 29.68 1005 3 4 0.00 0.00
8:54 am 08:54 Cloudy with Heavy Rain 50 10 46 7.8 86 86 NE 9 15 29.68 1005 2 3 0.23 5.84
9:18 am 09:18 Cloudy with Heavy Rain 50 10 46 7.8 86 86 NE 8 13 29.68 1005 2 2 0.12 3.05
9:43 am 09:43 Cloudy with Rain 50 10 46 7.8 86 86 NE 14 22 29.68 1005 3 5 0.24 6.10
9:54 am 09:54 Cloudy with Light Rain 50 10 46 7.8 86 86 NE 12 19 29.68 1005 4 6 0.25 6.35
10:04 am 10:04 Cloudy with Light Rain 51 10.6 47 8.3 86 86 NE 13 20 29.68 1005 6 10 0.00 0.03
10:32 am 10:32 Cloudy with Light Rain 51 10.6 46 7.8 83 83 ENE 15 24 29.68 1005 7 11 0.01 0.25
10:54 am 10:54 Cloudy with Light Rain 52 11.1 47 8.3 83 83 NE 15 24 29.67 1005 7 11 0.01 0.25
11:33 am 11:33 Cloudy with Light Rain 51 10.6 46 7.8 83 83 NE 14 22 29.68 1005 7 11 0.01 0.25
11:47 am 11:47 Cloudy with Rain 51 10.6 46 7.8 83 83 NE 14 22 29.68 1005 2 3 0.02 0.51
11:54 am 11:54 Cloudy with Light Rain 51 10.6 46 7.8 83 83 NE 10 17 29.67 1005 3 5 0.03 0.76
12:11 pm 12:11 Cloudy with Rain 51 10.6 46 7.8 83 83 NE 9 15 29.68 1005 2 3 0.04 1.02
12:39 pm 12:39 Cloudy with Rain 51 10.6 46 7.8 83 83 NNE 13 20 29.68 1005 3 4 0.10 2.54
12:54 pm 12:54 Cloudy with Light Rain 50 10 46 7.8 86 86 NE 20 31 29.65 1004 6 10 0.15 3.81
1:04 pm 13:04 Cloudy with Light Rain 51 10.6 47 8.3 86 86 NE 20 31 29.65 1004 10 16 0.00 0.03
1:19 pm 13:19 Cloudy with Light Rain 52 11.1 47 8.3 83 83 NE 16 26 29.65 1004 6 10 0.00 0.03
1:35 pm 13:35 Cloudy with Light Rain 51 10.6 47 8.3 86 86 NNE 13 20 29.65 1004 3 5 0.00 0.03
1:44 pm 13:44 Cloudy with Light Rain 51 10.6 47 8.3 86 86 NE 15 24 29.65 1004 3 4 0.00 0.03
1:54 pm 13:54 Cloudy with Light Rain 52 11.1 48 8.9 86 86 NE 12 19 29.65 1004 3 4 0.01 0.25
2:09 pm 14:09 Cloudy with Light Rain 52 11.1 48 8.9 86 86 NE 14 22 29.65 1004 2 3 0.00 0.03
2:36 pm 14:36 Cloudy with Light Rain 52 11.1 48 8.9 86 86 NE 14 22 29.65 1004 3 4 0.02 0.51
2:54 pm 14:54 Cloudy with Drizzle 52 11.1 48 8.9 86 86 NNE 14 22 29.64 1004 3 5 0.02 0.51
3:14 pm 15:14 Cloudy with Drizzle 53 11.7 48 8.9 83 83 NE 12 19 29.65 1004 2 3 0.00 0.03
3:37 pm 15:37 Cloudy with Drizzle 53 11.7 49 9.4 86 86 NE 15 24 29.62 1003 1 2 0.00 0.03
3:51 pm 15:51 Cloudy with Drizzle 54 12 48 9 82 82 NE 20 31 29.62 1003 2 2 0.01 0.25
3:54 pm 15:54 Cloudy with Drizzle 53 11.7 49 9.4 86 86 NE 17 28 29.62 1003 2 2 0.01 0.25
4:22 pm 16:22 Cloudy with Drizzle 53 11.7 49 9.4 86 86 NE 17 28 29.62 1003 3 5 0.00 0.03
4:48 pm 16:48 Cloudy with Drizzle 54 12 50 10 88 88 ENE 10 17 29.62 1003 2 3 0.00 0.03
4:54 pm 16:54 Cloudy with Drizzle 54 12.2 50 10 87 87 NE 13 20 29.62 1003 2 3 0.00 0.03
5:03 pm 17:03 Cloudy with Drizzle 54 12.2 50 10 87 87 NE 12 19 29.62 1003 2 3 0.00 0.03
5:20 pm 17:20 Cloudy with Drizzle 55 12.8 51 10.6 87 87 ESE 9 15 29.65 1004 1 1 0.02 0.51
5:30 pm 17:30 Cloudy with Drizzle 55 13 52 11 88 88 SE 6 9 29.65 1004 3 5 0.00 0.00
5:35 pm 17:35 Cloudy 55 12.8 52 11.1 90 90 SE 7 11 29.65 1004 7 11 0.05 1.27
5:51 pm 17:51 Cloudy 55 13 50 10 82 82 SE 8 13 29.65 1004 10 16 0.06 1.52
5:54 pm 17:54 Cloudy 55 12.8 51 10.6 87 87 SE 8 13 29.65 1004 10 16 0.06 1.52
6:02 pm 18:02 Cloudy 55 12.8 51 10.6 87 87 SE 8 13 29.65 1004 10 16 0.00 0.00
6:19 pm 18:19 Cloudy 55 12.8 50 10 83 83 SSE 9 15 29.68 1005 10 16 0.00 0.00
6:36 pm 18:36 Cloudy with Drizzle 55 13 50 10 82 82 SE 13 20 29.68 1005 5 8 0.00 0.00
6:43 pm 18:43 Cloudy 54 12.2 49 9.4 83 83 SSE 13 20 29.68 1005 10 16 0.00 0.03
6:49 pm 18:49 Cloudy 54 12 48 9 82 82 SSE 13 20 29.68 1005 10 16 0.00 0.03
6:54 pm 18:54 Cloudy 54 12.2 49 9.4 83 83 SSE 10 17 29.69 1005 10 16 0.00 0.03
7:17 pm 19:17 Cloudy 54 12.2 49 9.4 83 83 SSE 8 13 29.71 1006 10 16 0.00 0.00
7:54 pm 19:54 Cloudy with Light Rain 53 11.7 48 8.9 83 83 SSE 6 9 29.71 1006 10 16 0.00 0.03
8:54 pm 20:54 Cloudy with Light Rain 52 11.1 48 8.9 86 86 ESE 8 13 29.73 1007 10 16 0.01 0.25
9:08 pm 21:08 Cloudy with Light Rain 52 11.1 48 8.9 86 86 ESE 10 17 29.74 1007 7 11 0.01 0.25
9:26 pm 21:26 Cloudy with Light Rain 52 11 48 9 88 88 ESE 10 17 29.74 1007 10 16 0.00 0.00
9:47 pm 21:47 Cloudy with Light Rain 52 11.1 48 8.9 86 86 ESE 10 17 29.74 1007 10 16 0.02 0.51
9:54 pm 21:54 Cloudy with Light Rain 51 10.6 47 8.3 86 86 ESE 13 20 29.75 1008 10 16 0.03 0.76
10:36 pm 22:36 Cloudy with Light Rain 51 10.6 48 8.9 89 89 ESE 10 17 29.77 1008 8 13 0.00 0.03
10:49 pm 22:49 Cloudy with Light Rain 52 11 46 8 82 82 E 9 15 29.77 1008 9 14 0.00 0.03
10:54 pm 22:54 Cloudy with Drizzle 51 10.6 48 8.9 89 89 E 10 17 29.76 1008 4 6 0.00 0.03
11:15 pm 23:15 Cloudy with Light Rain 51 10.6 48 8.9 89 89 E 8 13 29.77 1008 5 8 0.01 0.25
11:35 pm 23:35 Cloudy with Light Rain 51 10.6 47 8.3 86 86 E 9 15 29.77 1008 8 13 0.02 0.51
11:44 pm 23:44 Cloudy 51 10.6 47 8.3 86 86 E 7 11 29.77 1008 10 16 0.02 0.51
11:54 pm 23:54 Cloudy 51 10.6 47 8.3 86 86 E 9 15 29.77 1008 10 16 0.02 0.51

Powered by AerisWeather